FENGYUN 1C DEB, 30398

Orbit data source: Space-Track

FENGYUN 1C DEB, 30398 is space debris in SSO originally from a launch on Mon, 10 May 1999 UTC launched from the Taiyaun Space Center, China (TSC). Fengyun 1C debris stems from the Chinese weather satellite Fengyun-1C, which was intentionally destroyed by a Chinese anti-satellite missile in 2007. This event dramatically increased the amount of space debris, with thousands of trackable fragments posing hazards to satellites and human spaceflight. The Fengyun 1C debris cloud has become a focal point in discussions about space sustainability and the need for international regulations to prevent the creation of new debris.

Loading next visibility...
Identifier
30398, 1999-025ADM
Orbit
SSO
Country
Flag of CNCN / PRC
Related business
Manufacturer
Unknown
Mission
Spacecraft
Bus & Motor
Unknown
Mass
Unknown
Launch date (UTC)
1999-05-10 (27 years ago)
Launch vehicle
Unknown
Launch site
Taiyaun Space Center, China (TSC)
Object type
Payload
Rocket body
Debris
Shape & HBR
Unknown shape, 0.1 m
Radar Cross Section
Medium (>0.1 m² and <1 m²)

Expand to show TLE details & history
Last TLE update: 20 hours ago

TLE from 20 hours ago
0 FENGYUN 1C DEB
1 30398U 99025ADM 26150.67844466  .00000373  00000-0  36967-3 0  9994
2 30398  99.7051  56.2892 0171912 215.1651 174.2060 13.78863211970859
Epoch: 2026-05-30T16:16Z
TLE epoch observation values (Epoch: 2026-05-30T16:16:57.618Z)
Latitude
29.14804°
Longitude
-81.58702°
Altitude
1,097.147 km
Speed
7.244 km/s
True Right ascension
03h 23m 22s
True Declination
29° 00' 31"
Sunlit
Object was in daylight at epoch
Visualization orbit readout
Latitude
Unknown
Longitude
Unknown
Altitude
Unknown
Speed
Unknown
Apparent Right ascension
Unknown
Apparent Declination
Unknown
Sunlit
N/A
Visualization observer readout
Local Sidereal Time
21:25:53
Azimuth
Unknown
Elevation
Unknown
Doppler factor
Unknown
Orbital elements
Apogee altitude
1,091.424 km
Perigee altitude
838.943 km
Semi-major axis
7,343.321 km
Eccentricity
0.01719
Inclination
99.7051°
RAAN
56.2892°
Arg. of periapsis
215.1651°
True anomaly
174.40071°
Mean anomaly
174.206°
Eccentric anomaly
174.30376°
Mean motion
3.44909 °/min
Orbital period
104.38 mins
BSTAR
0.00036967
Loading maneuver chart data...
Computing Atmospheric mass density...
Loading historical data...
Loading historical data...
Loading historical data...
Loading historical data...
Loading historical data...
Loading historical data...
Loading historical data...

Documentation

Showing up to 5 results
|